Persoonlijke zone
Imprimable
Brussel, 17/10/2015, BEL - Acerta Brussels Ekiden
Rapportenlijst > Ekiden - Resultaat
Zoek: Bladzijde: [1] 2 3 4
1596 Inputs
 
- AM: Association Male
- AF: Association Female
- AX: Association Mixed
- CM: Athletic Club Male
- CF: Athletic Club Female
- BD: Company


Klachten worden niet meer geaccepteerd. Resultaten zijn definitief.
Categorie
PosNrNaamLeef.ClubTijdTkmGem.PlaatsNaamGemeente
1.111DEN BLOMPOT 2:09:443:05 19.521am
2.100SAUCONY MANNEN TEAM 2:11:113:07 19.302am
3.122RUNNINGCENTER LEUVEN DREA 2:12:153:09 19.143am
4.114Excelsior Elites 2:12:593:10 19.041cm
5.127YELLOW ARMADA 2:13:533:11 18.914am
6.108cabw boys 1 2:15:093:13 18.732cm
7.102ANTWERP ATHLETICS BIOSHOP 2:16:013:14 18.613cm
8.121TEAM JOGGING PLUS 2:16:073:14 18.605am
9.118ROBA TEAM 2:17:053:15 18.474cm
10.119Scott-domo-Geral 2:17:153:16 18.455cm
11.106AVLO - team JOMA 2:17:573:17 18.356cm
12.1440FORMYFIT FORMYFIT2:19:533:19 18.101bd
13.201Team Vandewattijne 2:20:053:20 18.077cm
14.115KRC GENT MANNEN 1 2:21:043:21 17.958cm
15.153AVR 1 2:21:523:22 17.859cm
16.187XOlympic Running Team 2:22:163:23 17.8010cm
17.112DUFFEL AC TEAM A MANNEN 2:23:543:25 17.5911cm
18.117XPunk Running 2:24:103:25 17.561ax
19.120NMBS RAIL CARE SPORT HR RAIL CARE SP2:24:243:26 17.532bd
20.164cabw boys 2 2:25:103:27 17.4412cm
21.165club KKS 2:26:123:28 17.3213cm
22.141ASVO Heren 1 2:28:143:31 17.0814cm
23.170DE BEESTEN VAN GUY 2:28:363:32 17.0415cm
24.178FLAKKERS 2:28:553:32 17.0016cm
25.203Team VD'H 2:29:563:34 16.8917cm
26.222esak 2:31:193:36 16.7318cm
27.103atlemo1 2:31:473:36 16.6819cm
28.212ASVO heren 2 2:32:073:37 16.6420cm
29.180KRCGENT 2 2:32:323:37 16.6021cm
30.1335Born to run BORN TO RUN SPR2:32:353:37 16.593bd
31.146XAVLO IN DE MIX 2:33:043:38 16.5422cm
32.133AC BONHEIDEN 2:33:523:39 16.4523cm
33.209ZOTTEGEMSE ZOTTEN EN ZOTT 2:35:093:41 16.3224cm
34.157BEERSCHOT 1 2:35:393:42 16.2725cm
35.149AVMO 1 2:36:283:43 16.1826cm
36.226PEGASUS SPEED TEAM 2:37:123:44 16.1127cm
37.156XAVToekomst 2:38:073:45 16.0128cm
38.1206VAC BEVEREN-LEIE MEN 2:39:063:47 15.916am
39.927FARMADA &CO 2:39:263:47 15.881af
40.154AVR 2 2:39:403:48 15.8629cm
41.1466XHOME SOLUTION HOME SOLUTION2:39:563:48 15.834bd
42.145XAVKA RUNNING TEAM 2:40:503:49 15.7430cm
43.182LOOISE AV 2:42:003:51 15.6331cm
44.211XAc Duffel tripel hop 2:42:213:51 15.5932cm
45.109FCABW GIRLS 1 2:42:593:52 15.531cf
46.185XOEH mix team 2:43:033:52 15.5333cm
47.202XTeam Vandewattijne mix 2:43:133:53 15.5134cm
48.994GETT FURIOUS 2:43:173:53 15.517am
49.148AVLO jeugd 2:43:403:53 15.4735cm
50.101FSaucony Dames Team 2:44:093:54 15.422af
51.915XVDV Consultants ACERTAVDV CONSU2:44:283:54 15.395bd
52.1205U6 2:44:293:54 15.398am
53.110FDCLA DAMES 2:44:313:54 15.392cf
54.253UNICEF - GSK 2 UNICEF-GSKGLAXO2:45:043:55 15.346bd
55.134XAC WAASLAND 2:45:343:56 15.2936cm
56.1664SWIFT One SWIFT2:45:383:56 15.297bd
57.418P&G - Jakopf PROCTER & GAMBL2:45:593:56 15.258bd
58.197RIWA 2:46:013:57 15.2537cm
59.1211WE ZIJN HIER NU TOCH 1 2:47:243:59 15.129am
60.137XACP - TEAM2 2:47:533:59 15.0838cm
61.123FRUNNINGCENTER LEUVEN DREA 2:48:104:00 15.053af
62.522EDF Luminus 3 EDF LUMINUSEDF 2:48:544:01 14.999bd
63.193RESC Boys #1 2:49:204:01 14.9539cm
64.1178ST. PAULUS KORTRIJK 2:50:014:02 14.8910am
65.1167SHUMBA FAMILIY TEAM 2:50:474:03 14.8211am
66.1118XKLITSBERGRUNNERS 2:50:554:04 14.812ax
67.167CSDY Cadets 2:50:584:04 14.8140cm
68.1301XBALTA 1 BALTA INDUSTRIE2:50:584:04 14.8110bd
69.107Favr dames 1 2:51:204:04 14.783cf
70.1173SMELLS LIKE TEAM SPIRIT 2:51:424:05 14.7512am
71.116FKRCGENT DAMES 1 2:51:434:05 14.744cf
72.881Acerta - Acerta For Fun ACERTAACERTA2:52:154:05 14.7011bd
73.186OLSE Heren 2:53:364:07 14.5841cm
74.217XDilbeek atletiek club 2 2:54:024:08 14.5542cm
75.1499XJAN DE NUL RUNNERS A JAN DE NUL NV2:54:134:08 14.5312bd
76.1565Numeca1 NUMECA INTERNAT2:54:254:08 14.5213bd
77.1008GIVE EUR-HOPE-EU TEAMS-CA 2:54:274:09 14.5113am
78.220XDilbeek atletiek club 5 2:54:284:09 14.5143cm
79.702Brussels Rolin BNP PARIBAS FOR2:54:464:09 14.4914bd
80.1348XBuy Way ENSAI2 BUY WAY2:54:564:09 14.4715bd
81.142ATLA 2:55:024:09 14.4644cm
82.113FDUFFEL AC TEAM A VROUWEN 2:55:094:10 14.455cf
83.130XDE ROODRUNNERS SOLIDARISUNMS2:55:094:10 14.4516bd
84.491Team Snel ETERNIT NVETERN2:55:114:10 14.4517bd
85.213XASVO MIXED 2:55:444:10 14.4145cm
86.1580XPERNOD RICARD PERNOD RICARD B2:55:564:11 14.3918bd
87.1417Elster EnergyICT ENERGYICT NV2:56:014:11 14.3819bd
88.770XK.A.A.T.J.E. BNP PARIBAS FOR2:56:084:11 14.3720bd
89.168CSDY MASTERS 2:56:264:11 14.3546cm
90.147XAVLO IN DE MIX 2 2:56:274:11 14.3547cm
91.1302BALTA 2 BALTA INDUSTRIE2:56:434:12 14.3321bd
92.1346XBuy Way Dynamics BUY WAY2:56:504:12 14.3222bd
93.882XACERTA - ACERTA ROADRUNNE ACERTAACERTA2:57:334:13 14.2623bd
94.190PEGASUS SUPER SPEED 2:57:544:13 14.2348cm
95.1305XDEGROOF PETERCAM 6 X 1000 BANK DEGROOF PE2:58:234:14 14.1924bd
96.194RESC Boys #2 2:59:274:16 14.1149cm
97.1114XKC-TEAM 2:59:304:16 14.103ax
98.221XDILBEEK ATLETIEK CLUB 6 2:59:474:16 14.0850cm
99.1007FGIVE EUR-HOPE-EU TEAMS-CA 3:00:004:16 14.0725bd
100.1212WE ZIJN HIER NU TOCH 2 3:00:234:17 14.0414am
101.174XDilbeek atletiek club 1 3:00:274:17 14.0351cm
102.219XDILBEEK ATLETIEK CLUB 4 3:00:354:17 14.0252cm
103.218XDilbeek atletiek club 3 3:00:424:17 14.0153cm
104.136XACP - TEAM 1 3:00:564:18 13.9954cm
105.1708XVDAB SET VDAB3:01:174:18 13.9726bd
106.169XDARING DISTANCE DEVILS 3:01:174:18 13.9755cm
107.1097H3O 3:01:434:19 13.9315am
108.151AVMO OUDJES 3:01:564:19 13.9256cm
109.214XBRABO jeugd 3:02:084:19 13.9057cm
110.1159ROADTOCHAMPION 3:02:314:20 13.8716am
111.759HAINAUT DREAM TEAM BNP PARIBAS FOR3:03:004:21 13.8427bd
112.143atlemo2 3:03:034:21 13.8358cm
113.957FUGENT - DE HERENIGING 3:03:134:21 13.8228bd
114.658XSUPERDELHAIZE DELHAIZEDELHAIZ3:03:154:21 13.8229bd
115.1269Asco Engineering 1 ASCO INDUSTRIES3:03:304:21 13.8030bd
116.204XVAC MIX 1 3:03:314:21 13.8059cm
117.1234Affilips AFFILIPS NV3:03:524:22 13.7731bd
118.1381XCOFELY AXIMA RUNNERS COFELY AXIMA3:04:464:23 13.7032bd
119.595XRUNN ING SECURITIES EAW_ING3:05:034:24 13.6833bd
120.1620Rütgers Rabbit Runners RÜTGERS BELGIUM3:05:124:24 13.6734bd
121.1176XSPORTIVA GELRODE 2 3:05:124:24 13.674ax
122.542Crazy Runners EAW_ING3:05:454:25 13.6335bd
123.1208VASTGOEDBOX TEAM 3:06:034:25 13.6117am
124.155Xavr gemengd 3:06:104:25 13.6060cm
125.1750XDENNIS 'S DREAM TEAM ACCENTURE3:06:184:25 13.5936bd
126.680ALM 3 BNP PARIBAS FOR3:06:194:25 13.5937bd
127.469EY10 EYEY3:06:224:26 13.5838bd
128.1740XVGD 4 VGDVGD3:06:424:26 13.5639bd
129.448SUPERMOBILE MOBISTARMOBISTA3:06:474:26 13.5640bd
130.216FDilbeek AC Masters Vrouwe 3:07:004:26 13.546cf
131.1747XVGD 9 VGDX3:07:054:27 13.5341bd
132.1696Universiteit Gent 1 UNIVERSITEIT GE3:07:094:27 13.5342bd
133.124XSTUBRU VRT3:07:234:27 13.5143bd
134.1500JAN DE NUL RUNNERS B JAN DE NUL NV3:07:264:27 13.5144bd
135.1251XALPRO PLANT POWER 3 ALPRO3:07:514:28 13.4845bd
136.191FPROBBENS DAMES 3:07:544:28 13.477cf
137.617Deloitte ERS Dream Team EAW_DELOITTE3:08:194:28 13.4446bd
138.105FAVLO - leading ladies 3:08:334:29 13.438cf
139.140FASVO DAMES 3:08:434:29 13.429cf
140.1590XPRAYON RAINBOW PRAYON SA3:08:454:29 13.4147bd
141.135ACG Masters 3:08:494:29 13.4161cm
142.1140XMontfortleerkrachten 3:08:544:29 13.405ax
143.1670THALES ALENIA SPACE BELGI THALES ALENIA S3:09:134:30 13.3848bd
144.641XKALLOO WIT DVV3:09:304:30 13.3649bd
145.945CHENOIS LIBRE 3:09:374:30 13.3518am
146.224JCAVMO ORANJE TIJGERS 3:09:394:30 13.3562cm
147.1378XCM Ziekenfonds - Zorg CM ZIEKENFONDS3:09:474:30 13.3450bd
148.188PEGASUS 3 3:09:524:30 13.3363cm
149.225FOLSE Dames 3:09:574:31 13.3310cf
150.162Brabo Kadetten Jongens 3:10:034:31 13.3264cm
151.1630SAS LIGHTSPEED BIG DATA SAS INSTITUTE3:10:134:31 13.3151bd
152.960XDE SCEPTISCHE BUFFELS 3:10:204:31 13.306ax
153.1682ToxMen1 TOXIKON EUROPE 3:10:324:31 13.2952bd
154.1261APEA APEA3:10:464:32 13.2753bd
155.183FLooise AV Lady's 3:10:494:32 13.2711cf
156.581MixING rocks! EAW_ING3:10:534:32 13.2654bd
157.476XEY6 EYEY3:10:554:32 13.2655bd
158.1385The Diablo's CONSTAT BVBA3:11:124:32 13.2456bd
159.343XKBC PB AALST SPORTIFY @ KBCK3:11:204:33 13.2357bd
160.128XBOEKHOUDKANTOOR VERMEIREN 3:11:254:33 13.237ax
161.738EKIZEN BNP PARIBAS FOR3:11:264:33 13.2358bd
162.240XEverbest VINÇOTTE GROUPA3:11:294:33 13.2259bd
163.1386XD&L CONTINENTAL FOO3:11:304:33 13.2260bd
164.152FAVMON GIRLS 3:11:324:33 13.2212cf
165.176DUFFEL HEREN RECREANTEN 3:11:564:33 13.1965cm
166.1434XFACIL FACIL EUROPE BV3:12:194:34 13.1661bd
167.1155Plateaurunners 3:12:334:34 13.1519am
168.557ING LEASE TEAM 1 EAW_ING3:12:334:34 13.1562bd
169.229XVAC MIX 2 3:12:354:34 13.1566cm
170.504ELECTRABEL 1 ELECTRABEL GDF 3:12:514:35 13.1363bd
171.1350XHOEVEKESTEAM BVBA HET HOEVEK3:12:584:35 13.1264bd
172.297KBC heroes SPORTIFY @ KBCK3:13:074:35 13.1165bd
173.1344Buy Way BPCE BUY WAY3:13:114:35 13.1166bd
174.230XZA-TEAM 2 ZA TEAM3:13:134:35 13.1067cm
175.1063SPARTACUS TEAM ING 1 EAW_ING3:13:224:35 13.0967bd
176.1391XCRONOS INTERNATIONAL TEAM CRONOS INTERNAT3:13:394:36 13.0768bd
177.642ROAD JOGGERS HAALTERT DVV3:14:134:37 13.0469bd
178.1096XGOEBEZIG 3:14:174:37 13.038ax
179.908XSBB Leuven ACERTASBB3:14:354:37 13.0170bd
180.1019XGIVE EUR-HOPE-EU TEAMS-Co 3:14:384:37 13.019ax
181.171FDE HAMSE-LADIES 3:14:414:37 13.0013cf
182.512XElectrabel 2 ELECTRABEL GDF 3:14:544:38 12.9971bd
183.1408XGTB TURBO'S DEUTSCHE BANK3:14:554:38 12.9972bd
184.249XTEAM TOGETHER VAN MARCKE TOGE3:14:554:38 12.9973bd
185.1524SUPERMEN LABO THERAPTEUT3:15:024:38 12.9874bd
186.634XEASI EASIEASI3:15:074:38 12.9875bd
187.1584XPidpa Running Team PIDPA3:15:104:38 12.9776bd
188.1204XTry2gettus 3:15:164:38 12.9710ax
189.390SIEMENS HEALTHCARE 2 SIEMENSSIEMENS 3:15:404:39 12.9477bd
190.827XThe CM winners BNP PARIBAS FOR3:15:474:39 12.9378bd
191.1521XCMPG Running Team 1 KU LEUVEN - CMP3:15:504:39 12.9379bd
192.1725ALLIANCE WATERS N.V.3:15:564:39 12.9280bd
193.228XVAC M 1 3:16:184:40 12.9068cm
194.158XBEERSCHOT 2 3:16:334:40 12.8869cm
195.1683ToxMen2 TOXIKON EUROPE 3:16:404:40 12.8781bd
196.1253XTEAM 2 ALTACHEM NV3:16:494:40 12.8682bd
197.1582Xclimbing for life team PESSEMIER NV3:16:504:40 12.8683bd
198.1506XJoos Coms Mail JOOS COMS MAIL3:16:534:40 12.8684bd
199.189FPegasus Ladies 3:17:034:41 12.8514cf
200.670CSC TEAM 6 CSCCSC3:17:054:41 12.8585bd
201.126XTEAM SLOVAKIA 3:17:154:41 12.8486bd
202.184XLO-RUNNERS 3:17:154:41 12.8470cm
203.338KBC en doen! SPORTIFY @ KBCK3:17:154:41 12.8487bd
204.388XSIEMENS EM Roadrunners SIEMENSSIEMENS 3:17:214:41 12.8388bd
205.991GAAS AAN DE MAAS 3:17:344:41 12.8120am
206.1213WTF WHERE'S THE FINISH? 3:17:514:42 12.8021am
207.748FM Running Stars BNP PARIBAS FOR3:17:514:42 12.8089bd
208.1531XMAGNETROL MAGNETROL INTER3:17:524:42 12.7990bd
209.640XKalloo Rood DVV3:18:064:42 12.7891bd
210.1624Xsanac aveve SANAC NV3:18:084:42 12.7892bd
211.207XYESS WE CAN 3:18:124:42 12.7771cm
212.1657XSPORTOASE 1 SPORTOASE3:18:234:43 12.7693bd
213.1494XThe Better Ipsos IPSOS3:18:244:43 12.7694bd
214.586R&R Team EAW_ING3:18:294:43 12.7695bd
215.977XELIA RAFAEL - AU TOP 3:18:314:43 12.7511ax
216.1471Hortiplan AVEVE HORTIPLAN NV3:18:364:43 12.7596bd
217.720XDE HERZOTTEN 2.0 BNP PARIBAS FOR3:18:574:43 12.7397bd
218.856XKAAT* BERREFONDS VZW3:19:014:43 12.7212ax
219.1689XTriFinance 6 TRIFINANCE BELG3:19:074:44 12.7198bd
220.630XTEAM ATTAAAAACK EAW_ABINBEV3:19:094:44 12.7199bd
221.636CORONA DIRECT DVV3:19:184:44 12.70100bd
222.1249XAlpro Plant Power 1 ALPRO3:19:244:44 12.70101bd
223.326XDE STRAKKE VETERS SPORTIFY @ KBCK3:19:364:44 12.68102bd
224.144atlemo3 3:19:384:44 12.6872cm
225.138XARAC Subtop 3:19:394:44 12.6873cm
226.1037XGIVE EUR-HOPE-EU TEAMS-Fu 3:19:444:44 12.6813ax
227.922AG Insurance Life superst 3:19:514:45 12.6722am
228.1554Duck Team (PRLS) NBB3:19:554:45 12.66103bd
229.1645XSELLIGENT 1 SELLIGENT3:19:564:45 12.66104bd
230.1014XGIVE EUR-HOPE-EU TEAMS-CO 3:20:014:45 12.6614ax
231.1040GIVE EUR-HOPE-EU TEAMS-GS 3:20:044:45 12.6523am
232.139XARAC Top 3:20:064:45 12.6574cm
233.1110XIRCEL-CELINE 3:20:104:45 12.6515ax
234.1540Mediamarkt Bruxelles MEDIAMARKT3:20:124:45 12.65105bd
235.1275XACS DREAM TEAM ASTRAZENECA3:20:194:45 12.64106bd
236.367The G(enk) Spo(r)t SPORTIFY @ KBCK3:20:194:45 12.64107bd
237.1522XCMPG Running Team 2 KU LEUVEN-CMPG3:20:214:45 12.64108bd
238.1319XThe Flying Bumblebees BIOBEST BELGIUM3:20:344:46 12.62109bd
239.507XELECTRABEL 12 ELECTRABEL GDF 3:20:354:46 12.62110bd
240.1358CAT TEAM 05 CATERPILLAR PAR3:20:374:46 12.62111bd
241.1652XSODIWE SODIWE SOCIAAL 3:20:394:46 12.62112bd
242.1623XRUNDOM TEAM SAMUEL HAMACHE 3:20:404:46 12.62113bd
243.523XEDF Luminus 4 EDF LUMINUSEDF 3:20:464:46 12.61114bd
244.1372XCM Ziekenfonds - Brugge CM ZIEKENFONDS3:20:494:46 12.61115bd
245.330XFinance on the run 5 SPORTIFY @ KBCK3:20:534:46 12.60116bd
246.974XELIA ANTOINE - ON GAGNE 3:21:004:46 12.6016ax
247.1604XRealDolmen 4 REALDOLMEN3:21:044:46 12.59117bd
248.653XDIMENSION DATA TEAM 1 DIMENSION DATA 3:21:194:47 12.58118bd
249.1560Nexans Italy NEXANS BENELUX3:21:214:47 12.57119bd
250.1121XLE GAVOIR 3:21:224:47 12.5717ax
251.163Brabo Masters 3:21:274:47 12.5775cm
252.1139XMinor-Ndako 3:21:294:47 12.5718ax
253.906XROSETTE'S LOOPCLUB ACERTAVERZEKERI3:21:344:47 12.56120bd
254.1304BALTA 3 BALTA INDUSTRIE3:21:424:47 12.55121bd
255.1004XGIVE EUR-HOPE-EU TEAMS-AU 3:21:434:47 12.5519ax
256.1439S.H.E.LIKESRUNNING FLUXYS3:21:474:47 12.55122bd
257.1501XJAN DE NUL RUNNERS C JAN DE NUL NV3:21:544:48 12.54123bd
258.1430XEUROGLAS1 EUROGLAS DE LAN3:21:554:48 12.54124bd
259.1621SA DU HAINAUT 1 SA DU HAINAUT3:21:564:48 12.54125bd
260.1125Les guibales endiablées 3:21:584:48 12.5424am
261.1715XSTRATEGISCH BELEID ONDERW VLAAMSE OVERHEI3:21:594:48 12.54126bd
262.1390XConundra CONUNDRA3:21:594:48 12.53127bd
263.1262XAquafin AQUAFIN3:22:094:48 12.52128bd
264.1231ADESSO FITNESS NINOVE ADESSO'S BVBA3:22:094:48 12.52129bd
265.791XRAPPE WAPPERS BNP PARIBAS FOR3:22:204:48 12.51130bd
266.789XR4 (RISK RELAY RUN RAPIDL BNP PARIBAS FOR3:22:264:48 12.51131bd
267.862XOONA* BERREFONDS VZW3:22:274:48 12.5120ax
268.1321XBloso 1 BLOSO3:22:284:48 12.50132bd
269.553XHURICANE EAW_ING3:22:334:48 12.50133bd
270.1542XMENSURA: HAVE FUN AND RUN MENSURA3:22:374:49 12.50134bd
271.1409PASSION TO RUN DEUTSCHE BANK3:22:474:49 12.49135bd
272.660XToo Food to be True! DELHAIZEDELHAIZ3:22:484:49 12.48136bd
273.1270Asco Engineering 2 ASCO INDUSTRIES3:22:504:49 12.48137bd
274.104Fatlemo4 3:22:544:49 12.4815cf
275.1550NBBest NATIONAL BANK O3:22:574:49 12.47138bd
276.532XBANKGUARANTEES ING EAW_ING3:23:014:49 12.47139bd
277.412P&G - Fatboys PROCTER & GAMBL3:23:054:49 12.47140bd
278.425XP&G SNO PROCTER & GAMBL3:23:084:49 12.46141bd
279.703XBSS - Boost Sporting Spir BNP PARIBAS FOR3:23:114:49 12.46142bd
280.350MisplacedConfusion SPORTIFY @ KBCK3:23:224:50 12.45143bd
281.1145XNL TEAM 3:23:274:50 12.4421ax
282.1722XFORZA SPORZA3 VRT3:23:354:50 12.44144bd
283.800XRUN PW&E BNP PARIBAS FOR3:23:394:50 12.43145bd
284.1102HÉRITIERS DE ZATOPEK 3:23:454:50 12.4325am
285.336XKBC Consumer Finance SPORTIFY @ KBCK3:23:454:50 12.43146bd
286.288XKBC BERLARE SPORTIFY @ KBCK3:23:484:50 12.42147bd
287.524EDF Luminus 5 EDF LUMINUSEDF 3:23:484:50 12.42148bd
288.1616XRSZ Horta4U RSZ3:23:494:50 12.42149bd
289.1570XOMPartners1 OM PARTNERS N.V3:23:504:50 12.42150bd
290.714CLUB MED RUNNERS BNP PARIBAS FOR3:23:534:50 12.42151bd
291.461The Redman's Band HONEYWELL NVHON3:23:584:51 12.41152bd
292.661Xtranscational accounting DELHAIZEDELHAIZ3:24:004:51 12.41153bd
293.1013XGIVE EUR-HOPE-EU TEAMS-CO 3:24:064:51 12.4122ax
294.1661STEF BENELUX STEF TRANSPORT 3:24:064:51 12.40154bd
295.1422XESTERLINE BELGIUM ESTERLINE BELGI3:24:154:51 12.40155bd
296.406Record flITs RECORD GROUPREC3:24:174:51 12.39156bd
297.443XMultipharma 6 MULTIPHARMAMULT3:24:214:51 12.39157bd
298.263XTogether for growth 2 TOGETHER FOR GR3:24:234:51 12.39158bd
299.340XKBC Finance België 2 SPORTIFY @ KBCK3:24:254:51 12.39159bd
300.1009XGIVE EUR-HOPE-EU TEAMS-CA 3:24:284:51 12.3823ax
301.650CONTOIRE HAMEL DS SMITHDS SMIT3:24:284:51 12.38160bd
302.923XAloha Spirit 3:24:294:51 12.3824ax
303.370XThe Running Projects! SPORTIFY @ KBCK3:24:304:51 12.38161bd
304.525XFinal Assembly Volvo Cars EAW_VOLVO3:24:314:51 12.38162bd
305.398XALL 4 PERSONAL RECORD TEA RECORD GROUPREC3:24:364:51 12.37163bd
306.1207FVAC Beveren-Leie WOMEN 3:24:374:51 12.374af
307.252TEAM ZONDER NAAM VAN MARCKE TOGE3:24:384:51 12.37164bd
308.928XARTEVELDEHOGESCHOOL VERPL 3:24:474:52 12.3625ax
309.1315XTip-top BELHAIZE3:24:484:52 12.36165bd
310.1600XRamboll RAMBOLL MANAGEM3:24:514:52 12.36166bd
311.1406XDen Brandewijn DEN BRANDEWIJN3:24:514:52 12.36167bd
312.995XGETT PRET 3:24:524:52 12.3626ax
313.955XDe Dartele Nimfen 3:24:584:52 12.3527ax
314.920XABInBev Procurement VIC E 3:25:044:52 12.3528ax
315.976XELIA CHRIS - WHAT ELSE 3:25:054:52 12.3529ax
316.1462Hermes HERMES ECS3:25:114:52 12.34168bd
317.166XCLUB VANDEWEYER 3:25:124:52 12.3476cm
318.248XTeam 2gether VAN MARCKE TOGE3:25:134:52 12.34169bd
319.648XGENT PLANT DSSMITHDS SMITH3:25:174:52 12.33170bd
320.1141XMontfortleerkrachten 3:25:214:52 12.3330ax
321.238CONTROLATOM 1 VINÇOTTE GROUPA3:25:224:53 12.33171bd
322.417XP&G - Intern Athletics PROCTER & GAMBL3:25:244:53 12.33172bd
323.334Jackass SPORTIFY @ KBCK3:25:294:53 12.32173bd
324.1248Les champions d'Allianz ALLIANZ3:25:314:53 12.32174bd
325.161XBrabo Jongeren Mix 3:25:334:53 12.3277cm
326.150FAVMO LADYS 3:25:344:53 12.3216cf
327.975XELIA BEN - EN AVANT 3:25:384:53 12.3131ax
328.1578XPEPSICO BELUX 1 PEPSICO BELUX3:25:384:53 12.31175bd
329.613XWinnING EAW_ING3:25:454:53 12.31176bd
330.239XCONTROLATOM 2 VINÇOTTE GROUPA3:25:464:53 12.30177bd
331.1220XLILLOIS4EVER 7CONSEILS3:25:514:53 12.30178bd
332.1419XENPROTECH ENPROTECH3:25:514:53 12.30179bd
333.333INSANE BOLTS SPORTIFY @ KBCK3:25:574:53 12.29180bd
334.1156XPlöschee's Six Pack 3:25:594:53 12.2932ax
335.966XDE VIJFTIENDE MARATHON 3:26:074:54 12.2833ax
336.358XRisico lopers 2 SPORTIFY @ KBCK3:26:104:54 12.28181bd
337.1312XBELGOCONTROL 1 BELGOCONTROL3:26:144:54 12.28182bd
338.312XTHE FAST LEG SPORTIFY @ KBCK3:26:164:54 12.27183bd
339.132XA.D.B 1 3:26:264:54 12.2678cm
340.173FDE SNELLE WUVEN 3:26:304:54 12.2617cf
341.1240XHet Facilitair Bedrijf te AGENTSCHAP FACI3:26:334:54 12.26184bd
342.598SkyBar Team EAW_ING3:26:354:54 12.26185bd
343.1017GIVE EUR-HOPE-EU TEAMS-CO 3:26:404:54 12.2526am
344.521EDF LUMINUS 2 EDF LUMINUSEDF 3:26:454:54 12.25186bd
345.508XELECTRABEL 13 ELECTRABEL GDF 3:26:474:55 12.24187bd
346.1308Degroof Petercam Los Capi BANK DEGROOF PE3:26:524:55 12.24188bd
347.513ELECTRABEL 3 ELECTRABEL GDF 3:26:564:55 12.24189bd
348.177FEsak Ladies 3:26:574:55 12.2318cf
349.1400XDe Rycke Gebroeders 2 DE RYCKE GEBROE3:27:014:55 12.23190bd
350.1085XGIVE EUR-HOPE-EU TEAMS-TE 3:27:114:55 12.2234ax
351.962XDe Stoere Binken 3:27:344:56 12.2035ax
352.1402XPOWERED BY WATER TECHNOLO DE WATERGROEP3:27:384:56 12.19191bd
353.1011XGIVE EUR-HOPE-EU TEAMS-CO 3:27:394:56 12.1936ax
354.1144XNICH LANG SCHNACKEN 3:27:444:56 12.1937ax
355.987XFC Holland en de Verloren 3:27:484:56 12.1838ax
356.1585XPMV TIGERS PMV3:27:494:56 12.18192bd
357.925ANTWERP RUNNING STARS 3:27:554:56 12.1827am
358.1241XAgoria AGORIA3:27:564:56 12.18193bd
359.181XLei41 3:27:574:56 12.1879cm
360.1373CM Ziekenfonds - Gezondhe CM ZIEKENFONDS3:28:014:56 12.17194bd
361.363Shared Speed & Outperform SPORTIFY @ KBCK3:28:034:56 12.17195bd
362.1691UCB Club - Les outsiders UCB3:28:104:57 12.16196bd
363.769XJUST FOR FUN...FROM PERMA BNP PARIBAS FOR3:28:114:57 12.16197bd
364.1650XSIGGIS SIGGIS3:28:204:57 12.15198bd
365.519ELECTRABEL 9 ELECTRABEL GDF 3:28:204:57 12.15199bd
366.1020XGIVE EUR-HOPE-EU TEAMS-Co 3:28:274:57 12.1539ax
367.1285XATRADIUS RUNNING TEAM 3 ATRADIUS CREDIT3:28:314:57 12.14200bd
368.208FZA-TEAM 1 3:28:314:57 12.1419cf
369.1445XVTT TERVUREN GEMEENTE TERVUR3:28:324:57 12.14201bd
370.1577XPMV-LIONS PARTICIPATIEMAA3:28:374:57 12.14202bd
371.1052XGIVE EUR-HOPE-EU TEAMS-JR 3:28:384:57 12.1440ax
372.1239XHet Facilitair Bedrijf te AGENTSCHAP FACI3:28:444:57 12.13203bd
373.1665FSWIFT W-ONE SWIFT3:28:454:57 12.13204bd
374.790RAFAS RUNNING TEAM BNP PARIBAS FOR3:28:464:57 12.13205bd
375.1411DISTRILOG RUNNERS 2 DISTRILOG NV3:28:474:57 12.13206bd
376.408P&G - Mechelen 1 PROCTER & GAMBL3:28:484:57 12.13207bd
377.802XRun4Fun BNP PARIBAS FOR3:28:514:57 12.12208bd
378.778XNABOR BNP PARIBAS FOR3:28:594:58 12.11209bd
379.647XPOWER OF LEGS DSSMITHDS SMITH3:29:054:58 12.11210bd
380.1132XLEUVEN CD 3:29:124:58 12.1041ax
381.1246XAIO2 AIO3:29:144:58 12.10211bd
382.573Lending EAW_ING3:29:214:58 12.09212bd
383.1303FBALTA 4 BALTA INDUSTRIE3:29:214:58 12.09213bd
384.1495IREX1 IREX-CONSULTING3:29:264:58 12.09214bd
385.486XPROMAT 2 ETERNIT NVETERN3:29:294:58 12.09215bd
386.1238X-ITED RUNNERS AG INSURANCE3:29:334:58 12.08216bd
387.287KBC Audit SPORTIFY @ KBCK3:29:344:58 12.08217bd
388.427XCHAR LI BRU PARTENA PROFESS3:29:404:59 12.08218bd
389.231ZORGNET-ICURO TEAM 1 ZORGNET-ICURO (3:29:434:59 12.07219bd
390.1222XABB Robotrunners 2 ABB N.V.3:29:454:59 12.07220bd
391.198XRunning in the family 3:29:474:59 12.0780cm
392.780XOnly the best BNP PARIBAS FOR3:29:484:59 12.07221bd
393.391XSiemens Healthcare 3 SIEMENSSIEMENS 3:29:504:59 12.07222bd
394.610Walking Capital Solutions EAW_ING3:29:504:59 12.07223bd
395.1162XRUN4FUN 3:29:554:59 12.0642ax
396.1296XREPLY AVANTAGE REPLY 3:29:564:59 12.06224bd
397.1034XGIVE EUR-HOPE-EU TEAMS-FI 3:29:574:59 12.0643ax
398.479XEY9 EYEY3:29:584:59 12.06225bd
399.921XAchilles-Run4Fun-Opwijk 3:30:044:59 12.0544ax
400.767XIT BI WINNERS BNP PARIBAS FOR3:30:064:59 12.05226bd
401.1232Afdeling Maritieme Toegan AFDELING MARITI3:30:104:59 12.05227bd
402.1469XHopital Erasme 2 HOPITAL ERASME3:30:104:59 12.05228bd
403.200XTEAM PTJ 3:30:144:59 12.0481cm
404.1454GOODMAN GOODMAN3:30:175:00 12.04229bd
405.1255XAMEDES AMEDES BELGIUM 3:30:235:00 12.03230bd
406.1209XVDAB Vlaams Brabant 3:30:235:00 12.0345ax
407.963XDe Tsjaka's 3:30:265:00 12.0346ax
408.1654TEAM 1 SOMATIFIE SOMATIFIE3:30:275:00 12.03231bd
409.898Acerta - Viscious and Del ACERTAACERTA3:30:315:00 12.03232bd
410.539XBT Ladies EAW_ING3:30:315:00 12.03233bd
411.1198Thursdays Pachanguistas 3:30:325:00 12.0328am
412.1743VGD 7 VGDVGD3:30:415:00 12.02234bd
413.1135XMACARRONES CON CHORIZO 3:30:475:00 12.0147ax
414.192XRc De Tovenaars 3:30:475:00 12.0182cm
415.1112XJUSAGAGUVERA 3:30:495:00 12.0148ax
416.1166XRUNNING CLUB WEZEMBEEK-OP 3:30:535:00 12.0149ax
417.1480XICsense 1 ICSENSE3:30:575:00 12.00235bd
418.1666XSWIFT4FUN SWIFT3:31:025:01 12.00236bd
419.1561NLMK-1 NLMK CLABECQ SA3:31:105:01 11.99237bd
420.990Fluxys H 3:31:145:01 11.9929am
421.949XCOLRUYT BP&S 3:31:185:01 11.9850ax
422.872AW Calib AW EUROPEAW EUR3:31:185:01 11.98238bd
423.1397XDBEDU DE BOECK EDUCAT3:31:185:01 11.98239bd
424.1493XINTRION INTRION3:31:225:01 11.98240bd
425.1354XCAT TEAM 01 CATERPILLAR PAR3:31:255:01 11.98241bd
426.1175XSportiva Gelrode 1 3:31:285:01 11.9751ax
427.1618XDe bende van Anne RUIMTE VLAANDER3:31:335:01 11.97242bd
428.515XElectrabel 5 ELECTRABEL GDF 3:31:365:01 11.97243bd
429.510XELECTRABEL 15 ELECTRABEL GDF 3:31:395:01 11.96244bd
430.1503XJAVA COFFEE AND FOOD JAVA3:31:475:02 11.95245bd
431.1614XROBERT BOSCH TIENEN ROBERT BOSCH TI3:31:485:02 11.95246bd
432.1460XHBK HEIJMANS BOUW N3:31:505:02 11.95247bd
433.482XManasco 1 ETERNIT NVETERN3:31:565:02 11.95248bd
434.362XSamen Meer Sprinten SPORTIFY @ KBCK3:31:575:02 11.95249bd
435.1482ICsense 3 ICSENSE3:31:595:02 11.94250bd
436.594RunForChange EAW_ING3:32:005:02 11.94251bd
437.926XARK Team 3:32:015:02 11.9452ax
438.826XTHE BUFFALO'S BNP PARIBAS FOR3:32:035:02 11.94252bd
439.1124XLes Grolandais 3:32:085:02 11.9453ax
440.1529XKALLOOPT LUBRIZOL EUROPE3:32:105:02 11.93253bd
441.1496XIREX2 IREX-CONSULTING3:32:125:02 11.93254bd
442.941Xcardio runners 2 3:32:165:02 11.9354ax
443.1310BASF ANTWERPEN BASF ANTWERPEN 3:32:175:02 11.93255bd
444.969XDie Wiesel 3:32:185:02 11.9355ax
445.1126XLES MC CABAY 3:32:185:02 11.9356ax
446.1010XGIVE EUR-HOPE-EU TEAMS-Ch 3:32:215:02 11.9257ax
447.1353XCarrefour Groep J. Pollet CARREFOUR MARKE3:32:215:02 11.92256bd
448.1746XVGD 8 VGDX3:32:235:02 11.92257bd
449.735XEASY RUNNERS BNP PARIBAS FOR3:32:235:02 11.92258bd
450.1343De Polder Running Team BUS DE POLDER N3:32:255:03 11.92259bd
451.1379équipe 1 CNP3:32:275:03 11.92260bd
452.1101XHELLO BOOSTED BY US 3:32:285:03 11.9258ax
453.1153XPERRON 70 3:32:305:03 11.9159ax
454.1188Team Van Acker 3:32:425:03 11.9030am
455.433XPartena Fast PARTENA PROFESS3:32:515:03 11.90261bd
456.1375XCM ZIEKENFONDS - KAZOU CM ZIEKENFONDS3:32:525:03 11.89262bd
457.1104XHOMIEZ 3:32:575:03 11.8960ax
458.1637XSECURITAS 1 SECURITAS3:32:585:03 11.89263bd
459.561ING SF Runners EAW_ING3:33:005:03 11.89264bd
460.649CHAIN GANG DS SMITHDS SMIT3:33:065:04 11.88265bd
461.961Xde six spekskes 3:33:085:04 11.8861ax
462.626ABI Stella Running Devils EAW_ABINBEV3:33:085:04 11.88266bd
463.1543XMöbius Guts MÖBIUS3:33:155:04 11.87267bd
464.227XRUN LOISIR RFCL HASSAN 3:33:235:04 11.8683cm
465.1579XPEPSICO BELUX 2 PEPSICO BELUX3:33:245:04 11.86268bd
466.1317BEPHARBEL II BEPHARBEL MANUF3:33:265:04 11.86269bd
467.819TEAM BRUSSELS BNP PARIBAS FOR3:33:305:04 11.86270bd
468.1589XPrayon FiCusS PRAYON SA3:33:315:04 11.86271bd
469.1478XIBGE-AUTO B IBGE3:33:315:04 11.86272bd
470.1115KINDERRECHTENCOMMISSARIAA 3:33:325:04 11.8631am
471.1612Rft 1 RF-TECHNOLOGIES3:33:355:04 11.85273bd
472.396XFORZA SIA SIA PARTNERSSIA3:33:405:04 11.85274bd
473.235XTHE ORIGINALS VINÇOTTE GROUPA3:33:445:04 11.85275bd
474.1712XVEOLIA VIKING VEOLIA NV-SA3:33:475:04 11.84276bd
475.1504XJETAIR JETAIR3:33:505:05 11.84277bd
476.1555XNet met een mespunt Swiss NETH-ER3:33:525:05 11.84278bd
477.1598Morlanwelz QUITENS BAKERIE3:33:575:05 11.83279bd
478.1322XBloso 2 BLOSO3:33:585:05 11.83280bd
479.1363Centran CENTRAN SPRL3:34:025:05 11.83281bd
480.485Promat 1 ETERNIT NVETERN3:34:035:05 11.83282bd
481.284XGAAN MET DIE BANAAN! SPORTIFY @ KBCK3:34:045:05 11.83283bd
482.520XEDF Luminus 1 EDF LUMINUSEDF 3:34:055:05 11.83284bd
483.1046GIVE EUR-HOPE-EU TEAMS-IN 3:34:055:05 11.8332am
484.1191T'es pas cap 3:34:065:05 11.8333am
485.984XFC DANMARK 1 3:34:085:05 11.8262ax
486.1256XSPORTPALEISGROEP ANTWERPS SPORTP3:34:105:05 11.82285bd
487.1605REALDOLMEN 5 REALDOLMEN3:34:115:05 11.82286bd
488.776XMedia Processing BNP PARIBAS FOR3:34:135:05 11.82287bd
489.1002XGIVE EUR-HOPE-EU TEAMS-"T 3:34:165:05 11.8263ax
490.339XKBC Finance België 1 SPORTIFY @ KBCK3:34:175:05 11.82288bd
491.1083GIVE EUR-HOPE-EU TEAMS-TE 3:34:175:05 11.8234am
492.250XTEAM VM FRANCE VAN MARCKE TOGE3:34:235:05 11.81289bd
493.437TECCOM for Fun PARTENA PROFESS3:34:235:05 11.81290bd
494.568XITS - DAM - CCC Front EAW_ING3:34:295:05 11.80291bd
495.883XAcerta - Acerta.com ACERTAACERTA3:34:365:06 11.80292bd
496.315XThe sexy midnight runners SPORTIFY @ KBCK3:34:365:06 11.80293bd
497.596Running Forward EAW_ING3:34:415:06 11.79294bd
498.829XTHE FAST & THE FURIOUS 8 BNP PARIBAS FOR3:34:475:06 11.79295bd
499.341XKBC K2020 TEAM 1 KREDIETE SPORTIFY @ KBCK3:34:485:06 11.79296bd
500.1025XGIVE EUR-HOPE-EU TEAMS-EM 3:34:505:06 11.7964ax
DNF: abandon; DSQ: disqualifié; Vitesse en km/h
Bladzijde: [1] 2 3 4